Wind_Speed
34 31 29 28 29 30 30 30 31 32 31 30 30 30 31 31 30 30 29 29 30 29 29 29 32 35 37 38 38 38 39 40 42 43 45 47 48 49 50 51 52 52 52 52 52 51 50 50 51 52 53 53 52 51 51 52 52 52 50 47 47 46 44 39 36 34 34 32 28
32 32 31 29 29 29 29 30 30 31 31 31 30 30 31 32 32 32 31 30 30 30 29 28 28 30 33 35 37 38 38 39 41 42 44 45 46 47 48 50 51 51 52 52 52 52 52 52 52 53 53 53 51 50 50 50 48 48 47 44 44 44 42 39 36 35 33 29 25
29 30 30 29 27 27 28 29 29 30 31 31 31 30 30 31 33 33 33 32 31 31 30 29 28 27 28 31 33 34 35 36 38 39 41 43 44 45 47 48 49 50 51 51 52 52 52 52 52 52 52 51 51 50 50 50 49 47 45 43 42 42 41 40 38 36 33 28 25
26 27 28 28 28 28 28 29 30 30 30 31 32 31 30 29 32 34 35 34 33 32 31 30 28 26 26 27 28 29 30 31 33 35 37 39 41 43 45 46 48 49 49 50 50 51 51 51 50 50 50 50 50 51 51 51 49 46 44 42 41 40 40 39 38 36 33 30 28
26 25 26 27 28 29 29 30 32 32 32 32 32 33 32 30 30 32 35 36 35 33 32 30 29 27 26 26 26 27 27 28 30 32 35 37 39 40 42 44 46 47 47 48 49 50 50 50 50 49 49 49 49 50 51 50 48 46 44 42 41 40 39 38 38 37 35 32 30
28 27 26 27 28 29 30 31 32 33 33 32 33 34 34 32 30 31 34 36 36 34 32 31 30 29 28 27 27 27 27 28 29 31 33 35 36 38 40 41 43 44 45 46 47 48 49 49 49 48 48 48 48 49 49 49 47 45 43 42 41 40 39 38 38 37 36 33 30
30 29 28 27 28 28 29 30 32 32 33 33 33 35 36 35 33 32 34 36 37 36 33 32 32 31 30 29 29 28 28 29 30 31 32 34 35 35 37 38 40 42 43 44 45 45 46 46 47 47 47 47 47 48 48 48 46 45 44 43 42 41 39 38 38 37 35 32 27
30 30 29 28 28 28 29 29 30 31 33 34 34 35 36 37 35 34 34 37 38 37 35 33 33 33 32 31 31 30 30 30 30 31 32 33 33 34 35 35 37 39 41 41 42 42 43 43 44 46 46 47 47 47 47 47 46 45 44 43 42 40 39 37 35 34 31 27 22
31 31 30 30 29 28 28 28 29 31 33 34 35 35 36 37 37 36 37 38 40 39 36 34 34 34 34 33 32 32 31 31 31 31 32 33 33 34 34 35 36 37 39 40 41 41 42 42 43 45 46 46 46 45 45 45 44 44 44 43 42 40 39 36 33 30 27 23 21
33 32 32 31 30 30 29 28 28 30 33 35 36 36 36 37 38 38 38 40 41 40 38 36 36 35 35 34 34 33 32 32 31 32 33 33 34 35 35 35 36 37 39 40 41 41 42 42 43 44 45 46 45 44 43 42 43 44 44 43 42 40 38 35 32 29 26 24 22
34 34 33 32 31 30 30 29 29 29 31 34 36 37 37 37 37 38 40 42 42 42 40 39 37 37 37 36 35 34 33 32 32 33 33 34 35 36 36 37 37 38 39 40 41 41 41 42 42 43 45 45 44 43 42 42 43 45 45 43 40 38 36 34 32 31 29 26 24
34 34 34 33 32 32 31 30 30 30 31 34 35 37 37 36 37 38 39 42 42 42 42 41 39 38 38 37 35 34 33 33 33 34 35 36 36 37 37 38 38 39 39 40 41 41 41 42 43 43 43 44 44 43 43 43 45 45 43 40 37 35 33 32 31 31 30 28 27
34 34 34 34 33 33 32 32 31 31 32 34 36 36 36 36 37 38 39 41 42 42 42 42 41 39 38 37 35 34 33 33 34 35 36 37 37 37 38 39 39 39 39 40 40 40 40 41 42 42 42 43 43 43 43 43 43 41 38 35 33 31 30 30 30 30 30 29 28
34 34 33 33 33 33 33 32 32 31 32 33 35 36 36 36 37 38 40 41 42 42 43 43 41 40 39 38 36 34 33 33 34 35 36 37 37 37 38 38 38 39 39 39 39 39 39 40 40 40 40 41 41 41 40 39 37 34 32 31 30 30 30 31 31 31 31 30 29
35 34 34 33 33 33 32 32 31 30 31 33 36 37 36 35 36 37 40 42 43 43 43 43 42 41 39 38 36 35 34 34 35 35 36 36 37 37 37 38 38 38 38 38 38 38 38 38 39 39 39 39 39 38 36 34 33 31 31 31 31 32 32 33 33 32 31 30 28
35 35 34 33 33 32 32 32 31 31 31 32 34 35 35 35 35 36 39 42 43 43 42 42 42 41 39 37 36 34 34 34 35 35 36 36 36 36 37 38 38 38 38 38 38 38 38 38 38 37 37 37 37 36 35 34 33 33 32 32 32 33 33 33 32 31 29 27 26
36 36 35 34 33 33 33 33 32 32 32 32 33 34 35 35 34 36 39 42 43 43 43 43 42 40 38 36 35 34 35 35 35 35 36 36 36 37 37 38 38 38 38 38 38 38 38 38 37 37 36 36 36 36 36 36 35 34 33 33 33 32 32 31 29 28 26 25 24
38 37 35 34 33 33 33 33 33 33 33 33 33 34 35 35 35 36 39 42 44 44 44 43 42 39 36 35 34 35 35 35 35 36 36 37 37 38 39 39 39 38 37 38 38 39 39 38 37 37 36 36 36 37 37 36 35 34 33 32 32 31 30 28 27 26 25 24 24
38 37 36 35 34 34 33 33 33 34 34 34 33 34 35 35 35 36 39 43 44 45 44 43 40 37 35 34 34 35 36 36 36 36 37 37 37 39 40 40 38 37 37 38 39 39 39 38 38 37 37 36 36 36 36 35 34 33 32 32 31 29 28 27 26 26 25 25 25
38 37 36 36 36 36 35 34 34 34 35 35 34 35 36 37 36 37 39 43 45 45 44 42 39 36 33 33 35 36 36 36 36 37 37 37 37 39 40 40 39 38 38 38 39 39 39 38 37 37 36 36 35 35 34 33 33 33 32 31 30 29 29 28 27 27 27 27 28
39 38 37 37 37 37 36 35 34 34 35 35 35 36 37 38 38 37 39 42 45 44 42 40 38 35 33 34 36 37 37 36 36 36 36 36 38 40 41 40 39 38 38 38 39 39 38 37 36 36 36 35 35 34 34 34 34 34 33 33 32 31 30 30 30 30 30 30 30
40 39 38 38 38 37 36 35 34 34 35 36 36 36 37 39 39 38 37 39 42 42 40 39 38 36 35 36 37 38 37 36 36 36 36 36 38 40 41 40 39 38 38 38 38 38 37 37 36 36 36 36 36 36 36 36 36 36 35 34 33 33 32 32 32 32 32 31 31
41 40 39 38 37 35 34 34 33 34 34 35 36 36 37 38 39 38 36 36 39 40 39 38 38 37 36 37 38 39 38 37 36 36 36 36 38 40 41 40 39 38 38 38 38 38 38 38 38 38 38 38 38 38 38 38 37 37 36 35 34 34 33 33 33 32 32 31 30
41 40 39 38 36 35 34 33 33 33 33 34 35 35 35 36 37 37 35 34 36 38 39 38 38 37 37 37 39 39 39 38 37 36 36 36 39 41 41 39 38 38 38 38 39 39 40 41 41 41 40 40 40 39 39 38 38 37 36 36 35 35 34 34 33 32 31 30 29
42 41 39 38 36 35 34 33 33 33 33 33 34 34 34 34 35 35 33 32 34 37 39 38 38 38 38 38 39 41 41 39 37 36 36 38 40 41 40 38 38 38 39 40 41 41 42 43 43 43 42 41 40 39 39 38 37 37 36 36 36 36 35 34 33 32 30 29 28
42 41 40 39 37 37 36 35 34 34 33 33 33 33 33 33 34 34 33 32 33 35 37 37 37 38 38 38 40 41 41 39 37 36 37 39 41 41 39 38 38 39 41 42 43 43 44 44 44 43 43 42 41 40 39 38 37 37 37 37 37 36 35 34 33 31 29 28 26
42 40 39 39 38 38 37 36 35 35 34 33 33 33 32 32 33 33 33 32 33 35 37 37 38 38 38 39 40 41 40 37 36 36 38 40 42 41 39 38 39 41 43 44 44 44 44 44 44 44 44 43 42 41 40 39 38 38 37 37 36 35 34 33 32 30 29 27 26
42 41 39 39 39 38 38 37 36 35 34 34 33 32 31 31 31 33 33 33 33 35 36 37 37 36 37 37 39 40 39 36 35 36 38 40 42 41 40 39 41 43 44 44 44 44 44 45 45 45 45 45 44 42 41 40 39 38 37 36 35 34 32 31 30 29 28 27 25
43 42 41 39 39 38 38 37 36 35 35 34 33 31 30 29 30 32 33 33 34 35 36 36 34 33 33 35 38 39 38 35 35 36 38 39 41 41 41 41 43 44 44 44 44 45 45 46 46 46 46 45 44 42 41 40 39 38 36 35 33 32 31 30 29 28 27 26 25
43 43 42 40 39 37 37 36 36 35 35 34 32 30 29 28 29 31 32 33 34 35 36 35 32 29 30 33 36 38 37 34 34 35 38 40 41 41 42 43 44 44 44 44 45 46 46 47 47 46 45 44 43 41 40 39 37 36 35 33 32 31 30 29 28 27 26 25 24
43 43 42 41 39 37 36 35 35 34 34 33 31 29 27 27 28 30 32 33 34 35 35 34 31 28 28 30 35 37 36 33 32 34 38 40 42 42 43 43 43 43 44 45 46 47 48 47 46 45 44 42 41 40 39 37 36 35 33 32 31 30 29 28 27 26 25 24 23
42 43 43 42 40 38 36 35 34 33 33 32 30 28 26 26 28 31 33 34 35 35 36 35 32 30 29 31 34 37 36 32 31 34 38 41 42 43 43 44 43 44 45 47 48 49 48 47 46 44 42 41 39 38 37 36 35 34 33 31 30 29 28 27 26 25 24 23 22
42 43 43 42 41 39 37 35 34 33 32 31 28 26 24 25 27 31 33 35 36 37 36 36 35 33 32 33 36 38 37 34 31 34 38 41 42 43 44 45 44 45 47 48 49 49 49 47 45 43 41 40 39 38 37 36 35 33 32 31 30 29 28 27 26 25 24 23 21
43 43 43 42 41 40 38 36 34 33 32 30 27 24 22 23 26 30 34 37 38 38 38 37 37 37 37 36 38 40 39 36 33 33 37 40 42 43 45 45 45 46 48 49 50 49 48 46 44 42 41 39 38 37 36 35 34 33 32 31 30 29 27 26 25 24 23 22 20
44 44 43 42 41 40 38 36 34 32 31 29 26 23 21 23 26 30 34 37 39 39 39 38 38 39 40 40 39 41 42 39 35 34 36 38 41 43 45 46 46 48 49 50 50 49 48 46 44 42 41 40 39 37 36 35 34 33 32 31 30 29 27 26 25 23 22 21 19
45 44 43 42 41 39 37 35 33 31 30 29 26 23 21 23 26 30 34 37 38 40 40 40 40 41 42 42 40 41 42 41 38 36 36 38 40 42 44 46 47 48 50 50 50 49 47 45 43 42 41 40 39 37 36 35 34 33 31 30 29 28 27 26 24 23 22 20 19
45 44 43 42 40 39 37 35 33 31 29 28 25 22 21 22 25 30 34 37 39 41 43 43 43 43 43 43 42 41 42 43 42 40 38 38 39 42 44 46 48 49 50 50 50 48 46 44 43 42 41 40 38 37 36 35 33 32 31 30 29 28 27 26 24 23 21 20 19
44 43 42 41 39 38 36 34 32 30 29 27 25 22 21 22 24 28 33 38 42 44 45 45 45 44 43 42 42 42 42 43 43 42 40 39 40 42 45 47 48 49 50 51 49 48 46 44 42 41 40 39 38 37 36 34 33 32 31 30 29 28 27 25 24 23 22 20 19
44 42 41 40 38 36 34 33 31 30 28 26 24 21 20 21 22 26 32 39 43 45 46 46 46 44 43 41 41 42 43 44 44 44 42 40 40 43 46 48 49 50 51 51 50 48 46 44 42 41 40 39 38 36 35 34 33 32 32 30 29 28 27 25 24 23 22 20 19
43 41 40 39 37 35 33 32 30 28 27 25 23 21 20 20 20 23 30 38 42 44 45 46 45 44 42 41 41 42 44 45 45 45 43 39 40 44 47 48 49 50 51 51 50 48 46 44 43 41 40 39 37 36 35 34 33 32 31 30 29 28 27 25 24 23 21 20 18
42 40 39 37 36 34 32 31 30 28 26 24 23 20 19 19 19 22 28 36 40 43 44 45 44 43 41 40 40 42 44 45 46 45 43 39 39 44 48 49 49 50 52 52 50 48 46 44 43 41 40 39 37 36 35 34 33 32 31 30 29 28 27 25 24 22 21 20 18
Wind_Direction
320 318 315 314 313 311 307 300 294 289 287 286 287 287 288 291 292 292 292 292 292 291 287 278 267 259 254 250 245 241 238 236 234 231 230 228 227 227 226 225 224 223 221 220 218 216 213 211 210 210 210 210 210 211 211 210 209 210 212 212 213 213 212 211 208 207 207 205 201
317 315 314 312 311 310 307 303 297 292 289 287 285 284 285 287 288 289 288 287 286 285 283 280 273 265 259 254 251 248 245 243 240 238 235 232 231 229 228 227 225 224 223 222 220 219 217 215 213 212 212 213 212 211 209 208 206 208 209 210 210 209 207 206 205 205 204 200 196
313 312 311 309 306 305 304 303 298 293 288 284 282 280 281 282 284 285 285 283 282 281 278 274 270 265 260 255 252 250 249 247 245 242 240 237 236 234 232 230 228 227 226 225 224 222 221 219 217 215 214 214 213 212 210 208 207 207 208 208 207 206 204 203 203 203 201 196 194
307 307 307 306 303 302 301 300 298 294 287 281 279 278 277 277 279 281 282 281 280 278 275 271 266 261 256 252 250 248 248 247 245 244 242 240 238 236 234 232 230 229 228 228 227 226 225 223 220 218 216 214 213 212 211 211 209 209 209 208 206 204 202 201 201 200 198 195 196
304 303 302 302 302 300 299 298 299 297 291 283 277 274 273 273 274 276 277 278 276 275 273 268 262 257 252 249 247 246 246 246 245 243 241 240 238 236 234 232 231 230 229 229 229 228 227 225 223 219 217 214 212 210 210 211 210 209 208 206 203 201 199 197 197 196 196 196 200
304 301 299 299 300 299 297 296 296 296 294 287 278 272 270 270 270 271 273 274 274 272 270 265 259 254 250 247 246 246 246 246 244 242 240 238 236 234 232 231 230 229 229 228 228 228 227 226 223 220 217 214 211 210 209 209 208 205 202 199 198 196 195 194 194 194 195 198 201
303 300 298 296 296 296 295 293 293 293 292 288 280 273 268 267 268 268 270 271 271 269 266 262 257 252 249 248 247 247 247 245 244 241 239 237 235 233 232 231 230 229 228 227 226 226 226 225 223 220 218 216 213 210 209 207 203 199 194 192 191 191 191 192 194 194 195 197 198
302 299 297 296 294 293 292 291 289 288 288 286 282 275 270 267 266 266 266 266 267 266 264 260 256 252 250 250 250 250 249 247 244 241 238 235 233 232 231 230 229 228 227 226 226 225 224 224 222 221 219 217 214 211 209 205 201 195 191 188 187 188 189 191 192 192 191 189 187
302 299 297 296 293 292 290 288 286 285 284 284 282 278 272 267 265 264 263 262 263 263 262 258 254 251 251 252 253 253 251 248 245 241 238 234 231 229 228 227 227 226 226 225 225 224 223 221 220 219 218 217 215 213 210 207 201 195 191 188 187 187 188 188 187 184 179 175 177
301 299 298 296 293 292 290 287 284 282 282 282 281 279 274 269 265 263 261 259 259 260 259 256 253 250 250 251 253 253 251 247 244 240 236 232 229 227 226 225 224 223 223 222 221 221 220 219 216 214 214 214 213 213 213 210 204 198 193 190 188 187 185 182 176 169 164 164 173
301 299 297 296 294 292 290 288 284 281 279 279 279 278 275 270 265 262 259 258 256 255 255 254 251 249 249 249 251 251 248 244 240 237 234 230 228 226 224 223 222 220 218 217 216 214 212 210 207 206 206 207 209 210 210 208 203 197 193 190 188 184 179 173 166 160 159 164 171
301 299 297 295 294 292 290 288 285 281 278 277 276 276 274 270 264 260 257 255 252 251 251 250 249 248 248 248 248 246 243 239 236 233 230 227 225 223 221 219 218 216 214 212 210 207 203 203 201 199 198 200 201 201 200 197 194 191 189 187 185 180 173 167 163 161 163 168 171
302 300 297 296 294 292 290 288 285 282 279 277 275 274 272 269 263 257 253 251 250 249 248 247 247 247 247 246 243 240 237 234 231 228 225 222 219 217 214 213 212 210 209 207 205 201 198 197 196 194 193 193 193 191 189 186 185 184 184 182 180 177 173 170 168 169 171 172 173
303 300 298 296 294 292 290 287 285 282 279 277 275 273 270 266 260 254 250 248 248 247 246 245 245 245 245 244 240 237 233 230 226 223 219 215 212 209 207 205 205 204 202 200 199 196 193 192 191 190 188 186 183 181 179 179 179 180 179 179 178 177 176 175 175 175 175 175 173
304 301 299 297 295 293 290 288 285 282 280 277 276 274 270 264 257 251 247 246 245 245 244 244 243 243 241 239 236 233 229 226 222 217 212 208 205 202 200 199 198 198 197 194 192 189 187 186 184 183 181 179 177 175 175 176 176 176 177 177 177 178 177 177 176 176 174 172 170
305 302 299 297 295 293 291 288 285 282 280 278 277 274 269 263 256 249 245 244 243 242 242 242 241 239 236 232 229 227 224 220 216 211 206 201 198 196 195 194 194 194 193 190 186 183 182 181 180 179 178 177 177 177 177 177 176 176 176 177 178 177 176 174 172 170 169 167 166
306 303 301 298 295 293 290 288 285 283 280 278 276 273 269 263 256 249 244 242 242 242 241 240 238 234 228 223 221 219 216 212 208 204 200 196 193 191 191 191 192 192 191 188 184 181 179 180 180 181 181 182 182 181 179 178 176 175 176 176 175 173 170 167 164 162 161 161 162
307 305 302 299 296 293 291 288 285 282 280 277 275 273 269 264 257 250 244 242 242 242 241 238 233 227 221 217 215 211 208 204 201 198 195 193 190 189 189 190 190 190 188 186 183 181 181 182 184 185 185 185 183 181 179 176 175 173 172 170 167 164 161 158 156 155 155 157 160
307 306 303 300 297 294 291 289 286 283 280 277 275 273 269 265 260 252 246 242 241 241 238 233 226 221 217 215 212 207 201 198 196 193 191 189 188 188 189 188 187 185 184 184 183 183 184 186 186 186 185 183 180 178 175 173 170 167 164 160 158 155 152 151 151 152 155 158 161
308 306 303 301 298 295 291 288 285 283 280 278 275 272 269 265 261 255 248 241 239 238 234 227 220 216 215 215 210 204 198 194 192 191 189 187 187 187 187 185 183 182 182 184 185 186 187 187 186 183 180 178 175 172 169 166 162 159 156 153 151 150 150 151 153 156 159 162 165
309 307 304 302 300 296 292 288 285 282 280 278 275 272 268 264 261 256 249 241 237 233 227 221 216 214 214 212 207 201 196 193 191 189 187 186 186 186 185 183 182 182 184 186 187 187 187 185 182 178 175 172 169 166 163 159 157 154 153 152 152 153 154 157 160 164 167 169 170
310 308 306 304 302 298 294 289 286 283 281 279 277 273 269 264 260 257 250 241 233 228 222 215 212 212 212 211 205 199 195 192 191 189 187 186 185 185 185 184 184 186 187 187 187 185 183 180 176 173 170 167 165 162 160 158 156 156 155 156 157 159 162 165 167 169 171 172 172
311 310 309 308 305 302 297 293 289 285 283 281 278 275 270 264 260 257 251 239 230 224 219 214 210 209 210 209 204 199 195 192 191 189 188 186 185 185 186 187 187 187 187 186 184 181 178 174 171 169 167 165 163 162 161 160 159 159 160 161 163 165 167 169 170 171 171 170 170
313 312 312 310 308 306 302 298 294 289 285 282 279 276 270 265 261 258 251 238 227 222 219 215 210 207 207 206 203 199 195 193 190 189 188 186 186 187 187 188 187 186 185 183 180 176 173 171 169 168 167 166 165 164 164 163 162 162 163 164 165 167 168 169 169 168 168 167 167
315 314 313 312 310 308 305 302 297 293 288 284 281 276 271 266 262 259 251 237 226 221 220 217 211 206 203 202 200 198 195 193 190 189 187 187 187 187 187 186 185 184 182 180 176 173 171 169 168 168 168 168 168 167 166 165 165 164 165 165 166 166 166 166 166 165 165 164 165
316 315 314 313 311 309 306 302 298 295 291 287 283 277 271 266 262 258 249 236 226 222 220 218 213 206 201 200 199 197 194 192 190 188 187 186 187 186 185 182 182 181 180 177 174 172 170 169 168 168 168 169 168 167 166 166 165 165 165 165 165 165 164 164 164 163 163 163 163
316 314 313 312 311 308 306 303 299 295 292 289 284 278 272 265 260 256 248 237 228 224 222 220 215 208 202 200 197 195 193 190 189 188 187 187 186 185 182 180 180 180 178 175 173 171 170 169 169 168 168 167 167 166 165 165 165 165 165 165 164 164 163 163 163 163 163 163 163
316 314 312 311 309 307 306 303 299 295 292 289 285 280 273 265 258 252 247 239 232 226 223 221 217 211 204 199 196 194 191 188 186 186 186 187 186 183 181 180 180 179 176 174 173 172 170 169 168 167 166 165 164 163 163 163 164 164 165 165 164 164 163 163 163 163 163 163 163
315 314 311 309 307 306 305 303 299 296 293 291 287 282 274 264 255 248 243 238 232 226 222 220 216 210 202 197 195 192 189 186 184 184 185 185 184 182 181 181 180 178 175 173 172 171 170 169 167 166 164 163 162 161 161 162 163 164 164 165 164 164 164 164 164 164 164 164 164
314 312 310 307 306 305 304 302 299 296 294 292 288 283 274 264 253 244 238 233 229 224 220 217 213 205 197 195 193 191 187 183 182 182 183 184 183 182 182 181 179 176 174 172 171 170 169 168 166 165 163 162 161 160 161 161 162 163 164 165 165 166 166 166 166 166 166 166 166
312 310 309 307 306 305 303 302 300 297 295 292 289 283 274 262 250 240 234 229 224 221 217 213 208 200 194 192 192 190 185 180 179 181 183 184 183 183 182 181 178 175 173 171 170 169 168 167 166 164 163 161 160 160 160 161 162 163 164 165 166 167 167 168 168 168 168 168 169
310 309 309 308 306 305 304 302 300 298 295 293 289 282 273 262 249 239 232 226 222 218 214 210 205 200 195 192 190 187 182 177 177 181 184 184 183 183 182 180 177 174 172 171 170 169 168 167 166 164 163 162 161 161 161 162 163 164 165 166 168 168 169 170 170 171 171 172 172
309 309 309 308 307 306 306 304 302 300 297 294 289 281 270 259 248 238 231 225 221 217 214 210 206 202 197 193 190 186 181 175 177 182 185 184 183 183 182 180 177 174 172 171 170 169 168 167 166 165 165 164 164 163 163 164 165 166 167 168 169 170 171 172 173 173 174 175 175
309 309 309 309 309 308 308 307 305 303 300 297 291 280 266 255 246 238 231 225 221 218 215 211 208 205 203 200 196 191 185 177 177 181 185 184 184 183 183 181 177 174 173 172 171 170 169 168 167 167 167 167 167 166 166 166 167 168 169 170 171 172 173 174 175 175 176 176 176
310 310 310 310 310 310 309 308 307 305 302 299 292 278 262 251 243 236 231 225 221 218 215 211 208 207 209 210 206 199 191 182 179 181 184 184 184 184 183 181 178 175 174 173 173 172 171 170 169 169 169 170 170 169 169 169 169 170 170 171 172 173 174 175 176 176 176 176 176
311 312 312 312 311 311 310 308 307 304 302 298 292 276 257 245 238 234 229 224 219 215 212 209 207 208 209 210 209 204 196 189 183 182 183 183 183 184 184 182 179 176 175 175 175 174 172 171 171 172 172 173 172 172 171 171 171 171 172 173 173 174 175 176 176 176 175 176 176
312 313 313 312 311 310 309 308 306 303 300 297 292 276 258 247 238 231 225 220 215 212 210 208 208 207 207 206 206 203 199 193 188 184 183 182 183 184 185 184 180 178 177 177 177 176 174 173 173 174 175 175 175 174 173 172 172 172 173 174 174 175 177 177 177 176 176 177 177
313 313 313 312 311 309 308 306 304 302 299 296 291 277 260 250 241 229 219 214 211 209 208 208 208 208 206 204 202 200 198 195 191 186 182 181 182 184 186 185 182 180 179 179 179 177 176 176 176 177 178 178 177 176 175 174 174 174 174 175 176 177 178 177 177 177 178 179 180
313 313 312 312 310 309 308 305 303 301 298 296 290 277 261 252 242 227 214 209 209 209 209 209 209 209 207 203 199 197 195 194 192 187 182 179 181 185 188 187 184 182 180 181 180 179 178 178 179 180 180 180 179 178 177 176 176 176 176 177 177 177 178 179 179 179 180 181 181
313 313 312 312 311 309 307 304 302 299 297 294 289 276 260 252 242 225 211 207 208 210 211 211 211 210 208 204 198 194 192 192 190 185 179 176 180 186 190 189 186 184 182 182 181 181 181 181 181 182 182 182 181 180 179 179 178 179 179 179 179 178 178 179 181 181 181 181 182
313 312 312 312 311 309 306 303 301 298 295 292 285 272 256 246 238 222 209 205 207 209 211 211 210 209 207 203 199 194 191 189 186 181 175 173 179 186 189 190 188 185 183 183 183 183 183 183 183 183 184 183 183 182 181 181 181 182 182 182 181 180 179 180 181 182 182 182 183
Height
1449 1449 1448 1447 1445 1444 1443 1442 1440 1439 1437 1436 1434 1431 1430 1428 1428 1427 1426 1426 1425 1424 1423 1422 1422 1421 1421 1421 1421 1421 1421 1421 1422 1422 1422 1422 1422 1422 1423 1424 1424 1425 1426 1427 1429 1430 1430 1430 1431 1432 1433 1435 1438 1441 1443 1444 1446 1450 1454 1457 1458 1460 1464 1468 1470 1470 1471 1472 1473
1447 1446 1445 1444 1443 1442 1441 1439 1438 1436 1435 1434 1433 1431 1428 1426 1425 1425 1424 1423 1422 1422 1421 1420 1419 1419 1418 1418 1418 1419 1419 1419 1420 1420 1420 1420 1420 1421 1421 1422 1422 1423 1424 1425 1426 1427 1428 1428 1429 1430 1430 1431 1435 1438 1441 1442 1444 1447 1451 1455 1456 1457 1460 1463 1465 1467 1469 1470 1471
1444 1443 1443 1442 1441 1440 1439 1437 1436 1435 1434 1433 1432 1430 1428 1425 1424 1422 1421 1420 1420 1419 1418 1417 1417 1416 1415 1415 1415 1415 1416 1416 1417 1417 1418 1418 1419 1419 1420 1420 1420 1421 1422 1423 1424 1425 1426 1427 1428 1429 1429 1429 1431 1435 1438 1440 1442 1445 1449 1451 1454 1455 1455 1457 1460 1464 1466 1467 1468
1442 1441 1440 1439 1438 1437 1436 1435 1434 1432 1432 1431 1430 1428 1426 1425 1422 1420 1419 1418 1417 1416 1415 1415 1414 1414 1413 1413 1413 1413 1413 1413 1414 1414 1415 1415 1416 1416 1417 1417 1418 1419 1420 1421 1422 1423 1424 1425 1427 1428 1428 1428 1429 1432 1435 1438 1441 1444 1446 1449 1451 1452 1453 1453 1456 1459 1462 1464 1465
1440 1438 1437 1436 1435 1435 1433 1432 1430 1430 1429 1428 1427 1426 1425 1423 1421 1419 1417 1415 1414 1413 1413 1412 1412 1411 1411 1411 1410 1410 1410 1410 1411 1411 1412 1412 1413 1413 1414 1415 1415 1416 1417 1418 1419 1420 1421 1423 1425 1426 1426 1426 1427 1429 1432 1435 1438 1441 1444 1446 1448 1450 1451 1452 1453 1455 1458 1460 1461
1438 1436 1435 1434 1432 1431 1430 1429 1428 1426 1425 1425 1424 1423 1421 1421 1420 1417 1415 1413 1411 1411 1410 1410 1409 1409 1409 1409 1408 1408 1408 1408 1408 1408 1409 1409 1410 1410 1411 1412 1413 1414 1415 1415 1416 1417 1419 1420 1422 1423 1424 1425 1425 1426 1428 1431 1435 1437 1440 1442 1444 1446 1449 1450 1450 1451 1454 1456 1459
1435 1434 1433 1431 1430 1429 1427 1426 1425 1424 1422 1421 1420 1420 1418 1417 1417 1415 1413 1411 1409 1408 1408 1407 1406 1406 1406 1406 1405 1405 1405 1405 1405 1405 1406 1406 1407 1407 1408 1409 1410 1411 1412 1413 1414 1415 1416 1418 1419 1421 1422 1423 1423 1424 1425 1427 1430 1432 1435 1437 1440 1443 1446 1448 1449 1449 1451 1454 1457
1433 1432 1430 1429 1427 1426 1425 1423 1422 1421 1420 1418 1417 1416 1415 1415 1414 1413 1411 1409 1407 1405 1405 1404 1404 1404 1403 1403 1403 1403 1403 1403 1403 1403 1403 1404 1404 1405 1405 1406 1408 1409 1410 1411 1412 1413 1414 1416 1417 1419 1420 1421 1421 1421 1422 1424 1426 1429 1431 1434 1438 1441 1444 1446 1447 1448 1450 1453 1456
1430 1429 1428 1426 1425 1424 1422 1421 1420 1418 1416 1415 1414 1413 1412 1411 1411 1410 1409 1406 1404 1403 1402 1401 1401 1401 1401 1400 1400 1400 1400 1400 1400 1400 1401 1401 1401 1402 1403 1404 1405 1406 1407 1408 1409 1410 1412 1414 1415 1416 1417 1418 1419 1419 1420 1422 1424 1426 1430 1433 1436 1440 1442 1444 1445 1447 1449 1452 1456
1428 1426 1425 1424 1422 1421 1420 1418 1416 1415 1414 1412 1410 1409 1408 1407 1407 1407 1406 1404 1402 1400 1400 1399 1398 1398 1398 1398 1398 1398 1398 1398 1398 1398 1399 1399 1399 1399 1400 1401 1402 1403 1404 1405 1406 1408 1409 1410 1412 1414 1415 1416 1416 1417 1418 1420 1422 1425 1429 1432 1435 1438 1440 1442 1444 1446 1449 1452 1456
1426 1424 1423 1421 1420 1418 1417 1415 1414 1412 1410 1409 1407 1406 1405 1403 1403 1403 1403 1401 1399 1398 1397 1396 1396 1395 1395 1395 1395 1395 1395 1395 1395 1396 1396 1396 1397 1397 1398 1398 1399 1400 1401 1403 1404 1405 1406 1408 1409 1411 1412 1413 1414 1415 1415 1418 1420 1424 1428 1431 1435 1437 1439 1440 1442 1445 1447 1451 1455
1423 1421 1420 1419 1417 1416 1414 1413 1411 1409 1407 1406 1404 1403 1401 1400 1400 1400 1400 1398 1396 1395 1394 1394 1393 1393 1392 1392 1392 1393 1393 1393 1393 1394 1394 1394 1394 1395 1395 1396 1396 1398 1399 1400 1401 1403 1405 1405 1406 1408 1409 1410 1411 1412 1414 1416 1419 1423 1427 1430 1434 1436 1438 1440 1442 1444 1447 1450 1452
1421 1419 1417 1416 1415 1413 1412 1410 1408 1406 1404 1402 1401 1400 1399 1397 1397 1397 1397 1395 1393 1392 1391 1391 1390 1390 1390 1389 1390 1390 1390 1391 1391 1391 1392 1392 1392 1393 1393 1394 1395 1395 1397 1398 1400 1401 1403 1404 1405 1406 1407 1408 1409 1410 1413 1415 1419 1423 1426 1430 1433 1435 1438 1440 1442 1445 1447 1449 1451
1418 1416 1415 1413 1412 1411 1409 1408 1406 1404 1402 1400 1398 1397 1396 1395 1395 1394 1393 1391 1390 1389 1389 1388 1388 1387 1387 1387 1387 1387 1388 1388 1389 1390 1390 1390 1390 1391 1391 1392 1393 1394 1395 1397 1399 1401 1402 1404 1405 1405 1406 1407 1408 1410 1413 1416 1420 1423 1426 1429 1432 1435 1437 1440 1442 1444 1446 1448 1450
1415 1414 1412 1410 1409 1408 1407 1405 1403 1401 1399 1397 1395 1394 1393 1392 1392 1391 1390 1388 1387 1386 1386 1385 1385 1384 1384 1384 1384 1385 1385 1386 1387 1387 1388 1389 1389 1390 1390 1391 1392 1393 1395 1396 1399 1400 1402 1404 1405 1406 1406 1408 1409 1411 1413 1416 1420 1423 1425 1428 1430 1433 1435 1438 1440 1443 1445 1447 1450
1412 1410 1409 1408 1406 1405 1404 1402 1401 1399 1397 1394 1392 1391 1390 1390 1389 1389 1387 1385 1384 1383 1383 1383 1382 1381 1381 1381 1381 1382 1383 1384 1385 1385 1386 1387 1388 1389 1389 1390 1390 1392 1394 1395 1398 1400 1402 1404 1405 1406 1407 1408 1410 1411 1413 1415 1418 1421 1424 1427 1429 1432 1434 1437 1439 1442 1444 1446 1448
1409 1407 1406 1405 1403 1401 1400 1399 1398 1396 1394 1392 1390 1389 1388 1387 1387 1385 1384 1381 1380 1380 1380 1380 1379 1379 1379 1379 1379 1380 1381 1382 1382 1383 1385 1385 1386 1387 1388 1389 1389 1391 1393 1395 1397 1400 1402 1404 1405 1406 1407 1409 1410 1411 1412 1414 1416 1420 1422 1425 1428 1431 1434 1436 1438 1440 1443 1445 1447
1406 1404 1403 1401 1400 1398 1397 1395 1394 1393 1391 1390 1388 1386 1385 1384 1384 1383 1381 1379 1377 1377 1376 1376 1376 1376 1376 1376 1377 1378 1379 1380 1381 1382 1383 1384 1385 1386 1387 1387 1389 1390 1392 1394 1396 1399 1401 1403 1404 1405 1407 1408 1409 1410 1412 1414 1416 1418 1421 1425 1428 1430 1433 1435 1437 1439 1441 1444 1446
1403 1401 1400 1398 1396 1395 1393 1392 1391 1390 1388 1386 1385 1384 1382 1381 1381 1380 1378 1376 1374 1374 1374 1373 1373 1373 1374 1374 1375 1376 1377 1379 1380 1380 1381 1383 1384 1385 1385 1386 1388 1390 1392 1394 1396 1398 1400 1401 1403 1405 1406 1407 1409 1410 1412 1414 1415 1418 1421 1424 1426 1429 1431 1434 1436 1438 1440 1442 1445
1400 1398 1396 1395 1393 1391 1390 1388 1387 1386 1385 1384 1382 1380 1379 1378 1378 1377 1375 1373 1371 1370 1370 1370 1370 1371 1371 1372 1373 1375 1376 1378 1378 1379 1380 1382 1383 1384 1385 1386 1387 1389 1391 1393 1395 1397 1399 1400 1402 1403 1405 1406 1408 1410 1411 1414 1415 1418 1420 1422 1425 1427 1430 1432 1435 1437 1440 1442 1445
1398 1395 1394 1391 1389 1387 1386 1385 1383 1382 1381 1380 1379 1378 1376 1375 1375 1374 1373 1370 1368 1368 1368 1367 1367 1368 1369 1370 1371 1373 1375 1376 1377 1378 1379 1380 1381 1383 1384 1385 1387 1389 1390 1392 1394 1396 1398 1399 1401 1402 1404 1405 1407 1409 1411 1413 1415 1417 1419 1421 1424 1426 1429 1431 1434 1437 1439 1442 1444
1395 1393 1390 1388 1386 1384 1382 1381 1380 1379 1378 1377 1376 1375 1373 1371 1371 1370 1370 1368 1366 1365 1365 1365 1365 1365 1366 1368 1369 1371 1373 1374 1376 1377 1378 1379 1380 1382 1383 1385 1386 1388 1390 1391 1393 1394 1396 1398 1400 1401 1403 1405 1407 1409 1411 1412 1414 1416 1418 1420 1423 1425 1428 1431 1433 1436 1439 1441 1444
1392 1390 1387 1385 1383 1381 1379 1378 1376 1375 1374 1373 1372 1371 1370 1368 1367 1367 1367 1366 1364 1363 1362 1362 1362 1363 1364 1365 1367 1369 1371 1373 1374 1375 1376 1378 1379 1381 1382 1384 1385 1386 1388 1389 1391 1393 1395 1397 1399 1401 1403 1405 1406 1408 1410 1411 1413 1415 1417 1420 1422 1425 1427 1430 1433 1435 1438 1440 1443
1389 1386 1384 1382 1380 1378 1376 1375 1374 1372 1371 1370 1369 1368 1367 1365 1365 1364 1364 1363 1362 1360 1360 1360 1360 1361 1362 1364 1365 1367 1369 1370 1372 1374 1375 1376 1378 1379 1381 1382 1384 1385 1386 1387 1389 1391 1393 1395 1398 1400 1402 1404 1405 1407 1409 1411 1413 1415 1417 1419 1421 1424 1427 1430 1432 1435 1437 1439 1441
1386 1384 1381 1380 1378 1376 1374 1372 1371 1369 1368 1367 1366 1365 1364 1363 1362 1361 1361 1361 1359 1358 1358 1358 1358 1359 1360 1361 1363 1365 1367 1368 1370 1372 1373 1375 1376 1377 1379 1380 1382 1383 1385 1386 1388 1390 1392 1394 1396 1398 1400 1403 1405 1407 1409 1411 1413 1415 1417 1419 1421 1423 1426 1429 1431 1434 1436 1438 1440
1384 1381 1379 1377 1375 1373 1371 1370 1368 1367 1365 1364 1363 1362 1361 1360 1360 1359 1359 1358 1357 1357 1357 1357 1357 1358 1359 1360 1361 1363 1365 1366 1368 1370 1371 1372 1374 1375 1377 1379 1380 1382 1383 1385 1387 1389 1391 1393 1395 1396 1399 1401 1404 1406 1408 1411 1413 1415 1417 1419 1421 1423 1425 1427 1430 1432 1435 1437 1439
1381 1379 1377 1375 1373 1371 1369 1367 1365 1364 1363 1362 1360 1359 1358 1358 1357 1356 1356 1356 1356 1356 1356 1356 1356 1356 1357 1358 1360 1361 1363 1365 1367 1368 1369 1370 1372 1374 1375 1377 1379 1380 1382 1384 1386 1388 1390 1392 1394 1395 1397 1400 1402 1405 1407 1410 1412 1415 1417 1419 1421 1423 1425 1427 1429 1431 1434 1436 1438
1379 1376 1375 1373 1370 1368 1366 1365 1363 1361 1360 1359 1358 1356 1355 1355 1354 1354 1354 1354 1355 1355 1355 1355 1355 1356 1357 1358 1358 1359 1361 1363 1365 1366 1368 1369 1370 1372 1374 1376 1378 1379 1381 1383 1385 1387 1390 1391 1393 1395 1397 1399 1401 1404 1407 1409 1412 1414 1417 1419 1421 1423 1425 1427 1429 1430 1433 1435 1437
1376 1374 1372 1370 1368 1366 1364 1362 1360 1359 1357 1356 1355 1354 1352 1352 1351 1351 1352 1352 1353 1353 1353 1354 1355 1356 1356 1356 1356 1358 1360 1362 1363 1365 1366 1368 1370 1372 1374 1375 1377 1379 1381 1383 1385 1387 1389 1391 1393 1395 1396 1398 1401 1404 1406 1409 1411 1414 1416 1418 1420 1422 1424 1426 1428 1430 1432 1434 1436
1374 1372 1370 1368 1366 1364 1362 1360 1358 1356 1355 1353 1352 1351 1350 1349 1348 1349 1349 1350 1350 1351 1352 1353 1355 1355 1355 1354 1355 1357 1359 1360 1362 1364 1365 1367 1369 1371 1373 1375 1376 1378 1380 1382 1384 1386 1388 1390 1392 1394 1396 1398 1400 1403 1405 1408 1411 1413 1415 1418 1420 1422 1424 1426 1428 1430 1431 1433 1435
1371 1369 1367 1365 1363 1361 1359 1357 1355 1354 1352 1351 1349 1348 1347 1346 1345 1346 1346 1347 1348 1349 1350 1351 1352 1354 1354 1353 1354 1356 1358 1359 1360 1362 1364 1365 1368 1370 1372 1374 1376 1378 1380 1382 1384 1385 1388 1390 1392 1394 1396 1398 1400 1402 1405 1408 1410 1412 1415 1417 1419 1421 1423 1425 1427 1429 1431 1433 1435
1369 1366 1364 1362 1360 1358 1356 1354 1352 1351 1350 1348 1347 1345 1344 1343 1343 1343 1344 1345 1346 1347 1348 1349 1350 1352 1353 1353 1354 1355 1356 1357 1360 1361 1363 1365 1367 1370 1372 1374 1376 1378 1379 1381 1383 1385 1387 1389 1391 1393 1396 1398 1400 1402 1405 1407 1410 1412 1414 1416 1419 1420 1423 1425 1427 1429 1430 1432 1434
1367 1364 1361 1359 1356 1355 1353 1351 1349 1348 1346 1345 1344 1343 1341 1341 1340 1341 1342 1343 1344 1345 1346 1346 1348 1350 1351 1351 1352 1353 1354 1356 1359 1360 1362 1364 1367 1369 1371 1373 1375 1377 1379 1380 1382 1384 1386 1388 1390 1393 1395 1397 1400 1402 1404 1406 1409 1411 1413 1416 1418 1420 1422 1424 1426 1428 1430 1432 1433
1364 1361 1359 1356 1353 1351 1349 1348 1346 1344 1343 1342 1341 1340 1339 1339 1338 1338 1339 1340 1341 1343 1344 1345 1345 1346 1348 1349 1350 1351 1353 1355 1358 1360 1362 1364 1366 1368 1370 1372 1374 1376 1378 1380 1382 1384 1385 1387 1390 1392 1395 1397 1399 1401 1404 1406 1408 1410 1412 1415 1417 1419 1421 1424 1425 1427 1429 1431 1433
1361 1358 1355 1353 1350 1348 1346 1345 1343 1341 1340 1339 1338 1337 1337 1336 1336 1336 1336 1338 1339 1341 1342 1343 1344 1344 1345 1347 1348 1350 1352 1355 1357 1359 1361 1364 1366 1368 1370 1371 1373 1375 1377 1379 1381 1383 1385 1387 1389 1392 1394 1396 1399 1401 1403 1405 1407 1410 1412 1414 1416 1419 1421 1423 1425 1427 1429 1430 1432
1358 1355 1352 1350 1347 1345 1343 1342 1340 1339 1338 1336 1335 1335 1334 1334 1334 1334 1335 1336 1338 1339 1340 1341 1342 1343 1344 1345 1346 1348 1351 1354 1356 1358 1361 1363 1365 1368 1369 1371 1372 1375 1377 1379 1380 1383 1385 1387 1389 1391 1394 1396 1398 1400 1402 1404 1407 1409 1411 1413 1415 1418 1420 1422 1424 1426 1428 1429 1431
1356 1353 1350 1347 1345 1342 1341 1339 1338 1336 1335 1334 1333 1332 1332 1331 1332 1332 1333 1335 1336 1337 1338 1339 1340 1341 1342 1343 1345 1347 1350 1353 1355 1357 1360 1363 1365 1367 1369 1370 1372 1374 1376 1378 1380 1382 1384 1386 1389 1391 1393 1395 1397 1399 1401 1404 1406 1408 1410 1413 1415 1417 1419 1421 1423 1425 1427 1428 1430
1353 1350 1348 1345 1342 1340 1338 1337 1335 1334 1333 1332 1331 1330 1330 1330 1330 1330 1331 1332 1333 1334 1335 1337 1338 1339 1340 1342 1344 1346 1348 1351 1353 1355 1359 1362 1365 1367 1368 1370 1371 1373 1375 1377 1380 1382 1384 1386 1388 1390 1392 1394 1396 1398 1400 1402 1405 1407 1409 1412 1414 1416 1418 1420 1422 1424 1426 1428 1429
1351 1348 1345 1343 1340 1338 1336 1335 1333 1332 1330 1330 1329 1328 1328 1329 1329 1329 1329 1330 1330 1331 1333 1335 1337 1338 1340 1341 1343 1345 1347 1349 1352 1354 1357 1361 1364 1366 1367 1369 1370 1372 1375 1377 1379 1382 1384 1386 1388 1390 1392 1394 1395 1398 1400 1402 1404 1406 1408 1410 1413 1415 1417 1420 1421 1423 1425 1427 1428
1348 1345 1343 1341 1338 1336 1334 1333 1331 1330 1329 1328 1327 1327 1326 1327 1327 1328 1328 1328 1329 1330 1332 1334 1335 1337 1339 1340 1341 1343 1345 1348 1350 1353 1356 1360 1363 1365 1366 1368 1370 1372 1374 1376 1379 1381 1383 1385 1387 1389 1391 1393 1395 1397 1399 1401 1403 1405 1408 1410 1412 1414 1416 1419 1420 1422 1424 1426 1428
1345 1343 1340 1338 1336 1334 1332 1330 1329 1328 1327 1326 1325 1325 1325 1325 1326 1327 1327 1327 1328 1329 1331 1333 1335 1336 1337 1339 1340 1342 1344 1347 1350 1352 1355 1359 1362 1364 1365 1367 1369 1371 1373 1376 1378 1380 1382 1384 1386 1388 1390 1393 1395 1397 1399 1400 1403 1405 1407 1409 1411 1414 1415 1418 1420 1421 1423 1425 1427